Powrót do katalogu

SCOUT G-1 DEB

AktywnyPO
NORAD 21712·DEBRIS·🇺🇸 United States

Wystrzelony Jun 29, 1991 z Vandenberg Space Force Base

Loading…

Następne Przeloty (najbliższe 24 godziny)

TLE

ŚwieżeSource: Space-Track

Epoka: Sep 14, 2026, 09:45 UTC

1 21712U 91045F   26257.40630473  .00000544  00000-0  20668-3 0  9999
2 21712  89.2809 226.1941 0128851 326.5738 192.0690 14.25457029822519

Śledź SCOUT G-1 DEB w czasie rzeczywistym z AllMySat

Download on the App Store